TimeEDT,TemperatureF,Dew PointF,Humidity,Sea Level PressureIn,VisibilityMPH,Wind Direction,Wind SpeedMPH,Gust SpeedMPH,PrecipitationIn,Events,Conditions,WindDirDegrees,DateUTC
12:53 AM,66.0,62.1,87,30.04,4.0,ESE,3.5,-,N/A,,Overcast,110,2013-05-18 04:53:00
1:53 AM,66.0,61.0,84,30.03,5.0,SE,4.6,-,N/A,,Haze,130,2013-05-18 05:53:00
2:53 AM,64.9,61.0,87,30.02,4.0,East,3.5,-,N/A,,Overcast,90,2013-05-18 06:53:00
3:53 AM,64.9,61.0,87,30.02,3.0,East,3.5,-,N/A,,Overcast,90,2013-05-18 07:53:00
4:37 AM,64.4,60.8,88,30.05,2.5,Calm,Calm,-,N/A,,Scattered Clouds,0,2013-05-18 08:37:00
4:49 AM,64.4,60.8,88,30.05,3.0,ESE,3.5,-,N/A,,Scattered Clouds,120,2013-05-18 08:49:00
4:53 AM,64.9,61.0,87,30.02,3.0,SE,3.5,-,N/A,,Mostly Cloudy,130,2013-05-18 08:53:00
5:53 AM,64.9,61.0,87,30.04,3.0,Calm,Calm,-,N/A,,Overcast,0,2013-05-18 09:53:00
6:53 AM,64.9,60.1,84,30.07,2.5,Calm,Calm,-,N/A,,Haze,0,2013-05-18 10:53:00
7:53 AM,66.0,61.0,84,30.06,2.5,NNE,4.6,-,N/A,,Haze,20,2013-05-18 11:53:00
8:53 AM,64.9,61.0,87,30.08,2.5,Calm,Calm,-,N/A,,Overcast,0,2013-05-18 12:53:00
9:14 AM,64.4,60.8,88,30.10,3.0,NE,4.6,-,N/A,,Haze,40,2013-05-18 13:14:00
9:53 AM,66.9,62.1,84,30.07,3.0,East,4.6,-,N/A,,Haze,90,2013-05-18 13:53:00
10:00 AM,66.2,62.6,88,30.09,2.5,East,6.9,-,N/A,,Haze,90,2013-05-18 14:00:00
10:11 AM,66.2,62.6,88,30.09,3.0,ESE,6.9,-,N/A,,Haze,110,2013-05-18 14:11:00
10:53 AM,70.0,63.0,78,30.05,4.0,SE,6.9,-,N/A,,Haze,140,2013-05-18 14:53:00
11:53 AM,73.0,63.0,71,30.05,9.0,ESE,4.6,-,N/A,,Overcast,110,2013-05-18 15:53:00
12:53 PM,75.9,62.1,62,30.04,10.0,East,10.4,-,N/A,,Mostly Cloudy,100,2013-05-18 16:53:00
1:53 PM,77.0,63.0,62,30.03,10.0,SE,11.5,-,N/A,,Mostly Cloudy,130,2013-05-18 17:53:00
3:53 PM,77.0,60.1,56,30.00,10.0,ESE,3.5,-,N/A,,Overcast,120,2013-05-18 19:53:00
4:53 PM,78.1,63.0,60,29.99,10.0,East,6.9,-,N/A,,Mostly Cloudy,90,2013-05-18 20:53:00
6:53 PM,79.0,61.0,54,29.98,10.0,ESE,10.4,-,N/A,,Partly Cloudy,120,2013-05-18 22:53:00
7:53 PM,78.1,62.1,58,29.97,10.0,East,4.6,-,N/A,,Mostly Cloudy,80,2013-05-18 23:53:00
8:53 PM,73.9,62.1,66,29.97,9.0,ESE,6.9,-,N/A,,Partly Cloudy,120,2013-05-19 00:53:00
9:53 PM,72.0,62.1,71,29.97,9.0,ESE,6.9,-,N/A,,Clear,110,2013-05-19 01:53:00
10:53 PM,71.1,62.1,73,29.98,9.0,ESE,3.5,-,N/A,,Clear,120,2013-05-19 02:53:00
11:53 PM,70.0,61.0,73,29.98,7.0,Calm,Calm,-,N/A,,Scattered Clouds,0,2013-05-19 03:53:00